ORBCOMM FM13 [+]

Last updated on July 6, 2021, 3:36 p.m. UTC

1 25420U 98046H   21186.93137249  .00000070  00000-0  76239-4 0  9994
2 25420  44.9982 144.8632 0006275 280.9465  79.0675 14.33018686196137
UTC
Height (km)
Latitude
Longitude
Inclination
Orbital Period
UTC large
Height (km)
Speed (km/s)
/
Latitude / Longitude
Inclination (degrees)
Orbital Period (minutes)
Azimuth
Elevation
Range (km)
Doppler Factor
iOS Compass Heading
iOS Angle